Regional Weather Roundup
Issued by NWS Albany, NY

Current Version | Previous Version | Graphics & Text | Print | Product List | Glossary Off
Versions: 1 2 3 4 5 6 7 8 9 10 11 12 13 14 15 16 17 18 19 20 21 22 23 24 25 26 27 28

000
ASUS41 KALY 240410
RWRALY

NEW YORK STATE HOURLY WEATHER ROUNDUP
NATIONAL WEATHER SERVICE ALBANY NY
1200 AM EDT TUE MAY 24 2016

NOTE: "FAIR" INDICATES FEW OR NO CLOUDS BELOW 12,000 FEET WITH NO
SIGNIFICANT WEATHER AND/OR NO OBSTRUCTIONS TO VISIBILITY.

NYZ032-033-038>043-046>054-057>066-NYZ062>081-082-084-240500-
EAST


CITY           SKY/WX    TMP DP  RH WIND       PRES   REMARKS
ALBANY         CLOUDY    63  43  48 NW6       29.90R
GLENS FALLS    PTCLDY    54  46  74 CALM      29.90R
POUGHKEEPSIE   CLOUDY    64  50  60 CALM      29.91S
NEWBURGH       MOCLDY    61  50  67 SE8       29.92F
MONTGOMERY     CLOUDY    61  54  77 CALM      29.90S
WHITE PLAINS   LGT RAIN  61  46  57 W5        29.92S
ISLIP          LGT RAIN  58  51  78 W8        29.91S
NEW YORK CITY  CLOUDY    66  50  56 SW9       29.91F
CENTRAL PARK   CLOUDY    63  46  54 VRB6      29.95S
$$

NYZ005>009-017-018-044>046-055-056-240500-
CENTRAL


CITY           SKY/WX    TMP DP  RH WIND       PRES   REMARKS
FULTON         CLEAR     54  44  69 CALM      29.95R
SYRACUSE       PTCLDY    56  43  61 CALM      29.94S
ROME           PTCLDY    57  46  66 NW5       29.95R
ELMIRA         CLEAR     52  43  71 SW5       29.96S
BINGHAMTON     PTCLDY    60  41  49 N8        29.95S
MONTICELLO     CLOUDY    61  46  59 N6        29.93S
$$

NYZ026>034-041>043-087-240500-
NORTH


CITY           SKY/WX    TMP DP  RH WIND       PRES   REMARKS
WATERTOWN      PTCLDY    55  44  66 S5        29.93S
FORT DRUM      NOT AVBL
MASSENA        CLEAR     52  47  83 CALM      29.91S
SARANAC LAKE   CLEAR     41  35  79 CALM      29.95F
PLATTSBURGH    PTCLDY    52  42  69 CALM      29.90F
$$

NYZ001>004-010>016-019>021-085-240500-
WEST


CITY           SKY/WX    TMP DP  RH WIND       PRES   REMARKS
NIAGARA FALLS  CLEAR     56  49  77 S6        29.98R
BUFFALO        CLEAR     59  48  67 SW10      29.99S
DUNKIRK        CLEAR     54  43  66 SW6       30.01R
JAMESTOWN        N/A    N/A N/A N/A MISG        N/A
WELLSVILLE     CLEAR     58  40  51 NW3       30.02S
ROCHESTER      CLEAR     60  47  61 W7        29.96S
PENN YAN       CLEAR     55  43  63 CALM      29.97R
$$

             KEY
       WCI = WIND CHILL INDEX
       VSB = VISIBILITY
       HX  = HEAT INDEX
$$




USA.gov is the U.S. government's official web portal to all federal, state and local government web resources and services.